Terminal Aerodrome Forecast
Issued by NWS Twin Cities, MN

Home | Current Version | Previous Version | Graphics & Text | Print | Product List | Glossary On
Versions: 1 2 3 4 5 6 7 8 9 10 11 12 13 14 15 16 17 18 19 20 21 22 23 24 25 26 27 28 29 30
000
FTUS43 KMPX 231449 AAA
TAFMSP
TAF AMD
KMSP 231449Z 2315/2418 23010KT P6SM SCT050 OVC080
     FM231700 23009KT P6SM SCT025
     FM232200 29009KT P6SM BKN020
     FM240200 30010KT P6SM OVC015=

USA.gov is the U.S. government's official web portal to all federal, state and local government web resources and services.